Time,TemperatureF,DewpointF,PressureIn,WindDirection,WindDirectionDegrees,WindSpeedMPH,WindSpeedGustMPH,Humidity,HourlyPrecipIn,Conditions,Clouds,dailyrainin,SoftwareType,DateUTC
2013-03-24 00:03:00,32.0,21.0,29.87,WNW,300,14.0,20.0,63,-99.99,,,-99.99,,2013-03-24 04:03:00,
2013-03-24 00:13:00,32.0,21.0,29.87,WNW,300,13.0,22.0,63,-99.99,,,-99.99,,2013-03-24 04:13:00,
2013-03-24 00:22:00,32.0,21.0,29.88,WNW,290,13.0,17.0,63,-99.99,,,-99.99,,2013-03-24 04:22:00,
2013-03-24 00:33:00,32.0,21.0,29.88,West,280,13.0,16.0,63,-99.99,,,-99.99,,2013-03-24 04:33:00,
2013-03-24 00:43:00,32.0,21.0,29.88,WNW,290,12.0,16.0,63,-99.99,,,-99.99,,2013-03-24 04:43:00,
2013-03-24 00:52:00,32.0,21.0,29.88,WNW,290,14.0,-999.0,63,-99.99,,,-99.99,,2013-03-24 04:52:00,
2013-03-24 01:03:00,32.0,21.0,29.88,WNW,290,14.0,-999.0,63,-99.99,,,-99.99,,2013-03-24 05:03:00,
2013-03-24 01:12:00,32.0,21.0,29.87,West,280,10.0,-999.0,63,-99.99,,,-99.99,,2013-03-24 05:12:00,
2013-03-24 01:22:00,32.0,21.0,29.88,WNW,290,10.0,-999.0,63,-99.99,,,-99.99,,2013-03-24 05:22:00,
2013-03-24 01:32:00,32.0,21.0,29.88,WNW,300,7.0,-999.0,63,-99.99,,,-99.99,,2013-03-24 05:32:00,
2013-03-24 01:42:00,32.0,21.0,29.88,WNW,290,8.0,-999.0,63,-99.99,,,-99.99,,2013-03-24 05:42:00,
2013-03-24 01:52:00,30.0,21.0,29.88,WNW,290,9.0,-999.0,68,-99.99,,,-99.99,,2013-03-24 05:52:00,
2013-03-24 02:02:00,30.0,21.0,29.88,WNW,290,9.0,-999.0,68,-99.99,,,-99.99,,2013-03-24 06:02:00,
2013-03-24 02:12:00,32.0,21.0,29.88,WNW,290,10.0,16.0,63,-99.99,,,-99.99,,2013-03-24 06:12:00,
2013-03-24 02:22:00,32.0,21.0,29.88,WNW,290,9.0,16.0,63,-99.99,,,-99.99,,2013-03-24 06:22:00,
2013-03-24 02:32:00,32.0,21.0,29.88,WNW,290,10.0,20.0,63,-99.99,,,-99.99,,2013-03-24 06:32:00,
2013-03-24 02:42:00,32.0,21.0,29.88,WNW,290,13.0,20.0,63,-99.99,,,-99.99,,2013-03-24 06:42:00,
2013-03-24 02:52:00,32.0,21.0,29.87,WNW,290,14.0,18.0,63,-99.99,,,-99.99,,2013-03-24 06:52:00,
2013-03-24 03:02:00,32.0,21.0,29.87,WNW,290,14.0,18.0,63,-99.99,,,-99.99,,2013-03-24 07:02:00,
2013-03-24 03:12:00,30.0,21.0,29.87,WNW,290,12.0,16.0,68,-99.99,,,-99.99,,2013-03-24 07:12:00,
2013-03-24 03:22:00,30.0,21.0,29.87,WNW,290,10.0,17.0,68,-99.99,,,-99.99,,2013-03-24 07:22:00,
2013-03-24 03:32:00,30.0,21.0,29.86,WNW,300,9.0,-999.0,68,-99.99,,,-99.99,,2013-03-24 07:32:00,
2013-03-24 03:42:00,30.0,21.0,29.86,WNW,300,10.0,-999.0,68,-99.99,,,-99.99,,2013-03-24 07:42:00,
2013-03-24 03:52:00,30.0,21.0,29.85,WNW,290,12.0,-999.0,68,-99.99,,,-99.99,,2013-03-24 07:52:00,
2013-03-24 04:03:00,30.0,21.0,29.85,WNW,290,12.0,-999.0,68,-99.99,,,-99.99,,2013-03-24 08:03:00,
2013-03-24 04:12:00,30.0,21.0,29.85,WNW,290,13.0,20.0,68,-99.99,,,-99.99,,2013-03-24 08:12:00,
2013-03-24 04:22:00,32.0,21.0,29.85,WNW,300,13.0,-999.0,63,-99.99,,,-99.99,,2013-03-24 08:22:00,
2013-03-24 04:32:00,32.0,21.0,29.84,WNW,300,13.0,18.0,63,-99.99,,,-99.99,,2013-03-24 08:32:00,
2013-03-24 04:42:00,32.0,21.0,29.85,WNW,300,12.0,-999.0,63,-99.99,,,-99.99,,2013-03-24 08:42:00,
2013-03-24 04:52:00,32.0,21.0,29.84,WNW,290,9.0,-999.0,63,-99.99,,,-99.99,,2013-03-24 08:52:00,
2013-03-24 05:02:00,32.0,21.0,29.84,WNW,290,9.0,-999.0,63,-99.99,,,-99.99,,2013-03-24 09:02:00,
2013-03-24 05:12:00,32.0,21.0,29.84,WNW,300,8.0,-999.0,63,-99.99,,,-99.99,,2013-03-24 09:12:00,
2013-03-24 05:22:00,32.0,21.0,29.84,WNW,300,13.0,-999.0,63,-99.99,,,-99.99,,2013-03-24 09:22:00,
2013-03-24 05:33:00,32.0,21.0,29.84,WNW,290,10.0,-999.0,63,-99.99,,,-99.99,,2013-03-24 09:33:00,
2013-03-24 05:42:00,32.0,21.0,29.85,West,280,9.0,-999.0,63,-99.99,,,-99.99,,2013-03-24 09:42:00,
2013-03-24 05:52:00,32.0,21.0,29.87,West,280,12.0,-999.0,63,-99.99,,,-99.99,,2013-03-24 09:52:00,
2013-03-24 06:03:00,32.0,21.0,29.87,West,280,12.0,-999.0,63,-99.99,,,-99.99,,2013-03-24 10:03:00,
2013-03-24 06:12:00,32.0,21.0,29.89,West,280,9.0,-999.0,63,-99.99,,,-99.99,,2013-03-24 10:12:00,
2013-03-24 06:22:00,32.0,21.0,29.88,WNW,300,12.0,-999.0,63,-99.99,,,-99.99,,2013-03-24 10:22:00,
2013-03-24 06:33:00,32.0,21.0,29.89,WNW,290,10.0,16.0,63,-99.99,,,-99.99,,2013-03-24 10:33:00,
2013-03-24 06:42:00,32.0,21.0,29.89,WNW,300,12.0,-999.0,63,-99.99,,,-99.99,,2013-03-24 10:42:00,
2013-03-24 06:52:00,32.0,21.0,29.90,WNW,300,13.0,17.0,63,-99.99,,,-99.99,,2013-03-24 10:52:00,
2013-03-24 07:03:00,32.0,21.0,29.90,NW,310,12.0,17.0,63,-99.99,,,-99.99,,2013-03-24 11:03:00,
2013-03-24 07:12:00,32.0,21.0,29.90,WNW,300,8.0,-999.0,63,-99.99,,,-99.99,,2013-03-24 11:12:00,
2013-03-24 07:22:00,32.0,21.0,29.89,WNW,300,10.0,-999.0,63,-99.99,,,-99.99,,2013-03-24 11:22:00,
2013-03-24 07:33:00,32.0,21.0,29.90,WNW,300,12.0,-999.0,63,-99.99,,,-99.99,,2013-03-24 11:33:00,
2013-03-24 07:42:00,32.0,21.0,29.90,NW,310,9.0,-999.0,63,-99.99,,,-99.99,,2013-03-24 11:42:00,
2013-03-24 07:52:00,34.0,21.0,29.89,NW,310,8.0,-999.0,59,-99.99,,,-99.99,,2013-03-24 11:52:00,
2013-03-24 08:03:00,34.0,21.0,29.89,NW,310,8.0,-999.0,59,-99.99,,,-99.99,,2013-03-24 12:03:00,
2013-03-24 08:11:00,34.0,21.0,29.89,NW,320,9.0,-999.0,59,-99.99,,,-99.99,,2013-03-24 12:11:00,
2013-03-24 08:21:00,34.0,21.0,29.89,NNW,330,5.0,-999.0,59,-99.99,,,-99.99,,2013-03-24 12:21:00,
2013-03-24 08:31:00,34.0,21.0,29.90,NNW,330,7.0,-999.0,59,-99.99,,,-99.99,,2013-03-24 12:31:00,
2013-03-24 08:41:00,34.0,21.0,29.89,NNW,330,3.0,-999.0,59,-99.99,,,-99.99,,2013-03-24 12:41:00,
2013-03-24 08:52:00,34.0,21.0,29.89,NNW,330,5.0,-999.0,59,-99.99,,,-99.99,,2013-03-24 12:52:00,
2013-03-24 09:02:00,34.0,21.0,29.89,NNW,330,5.0,-999.0,59,-99.99,,,-99.99,,2013-03-24 13:02:00,
2013-03-24 09:12:00,34.0,21.0,29.90,WNW,300,5.0,-999.0,59,-99.99,,,-99.99,,2013-03-24 13:12:00,
2013-03-24 09:22:00,34.0,21.0,29.90,West,270,7.0,-999.0,59,-99.99,,,-99.99,,2013-03-24 13:22:00,
2013-03-24 09:32:00,34.0,21.0,29.90,West,270,8.0,-999.0,59,-99.99,,,-99.99,,2013-03-24 13:32:00,
2013-03-24 09:42:00,34.0,21.0,29.90,West,280,7.0,-999.0,59,-99.99,,,-99.99,,2013-03-24 13:42:00,
2013-03-24 09:52:00,36.0,21.0,29.90,WNW,290,8.0,-999.0,55,-99.99,,,-99.99,,2013-03-24 13:52:00,
2013-03-24 10:02:00,36.0,21.0,29.90,WNW,290,8.0,-999.0,55,-99.99,,,-99.99,,2013-03-24 14:02:00,
2013-03-24 10:12:00,36.0,21.0,29.90,WNW,300,8.0,-999.0,55,-99.99,,,-99.99,,2013-03-24 14:12:00,
2013-03-24 10:22:00,36.0,21.0,29.90,WNW,300,8.0,-999.0,55,-99.99,,,-99.99,,2013-03-24 14:22:00,
2013-03-24 10:32:00,36.0,19.0,29.90,North,350,9.0,-999.0,51,-99.99,,,-99.99,,2013-03-24 14:32:00,
2013-03-24 10:42:00,36.0,19.0,29.89,NNW,340,8.0,-999.0,51,-99.99,,,-99.99,,2013-03-24 14:42:00,
2013-03-24 10:52:00,36.0,19.0,29.90,NNW,330,6.0,-999.0,51,-99.99,,,-99.99,,2013-03-24 14:52:00,
2013-03-24 11:02:00,36.0,19.0,29.90,NNW,330,6.0,-999.0,51,-99.99,,,-99.99,,2013-03-24 15:02:00,
2013-03-24 11:11:00,36.0,19.0,29.89,NNW,330,8.0,-999.0,51,-99.99,,,-99.99,,2013-03-24 15:11:00,
2013-03-24 11:21:00,36.0,19.0,29.89,North,350,7.0,-999.0,51,-99.99,,,-99.99,,2013-03-24 15:21:00,
2013-03-24 11:32:00,37.0,19.0,29.89,NNW,340,12.0,-999.0,47,-99.99,,,-99.99,,2013-03-24 15:32:00,
2013-03-24 11:42:00,37.0,19.0,29.88,NW,310,6.0,-999.0,47,-99.99,,,-99.99,,2013-03-24 15:42:00,
2013-03-24 11:52:00,37.0,19.0,29.88,NNW,330,7.0,-999.0,47,-99.99,,,-99.99,,2013-03-24 15:52:00,
2013-03-24 12:03:00,37.0,19.0,29.88,NNW,330,7.0,-999.0,47,-99.99,,,-99.99,,2013-03-24 16:03:00,
2013-03-24 12:12:00,37.0,19.0,29.89,West,280,6.0,-999.0,47,-99.99,,,-99.99,,2013-03-24 16:12:00,
2013-03-24 12:22:00,37.0,19.0,29.89,West,260,9.0,-999.0,47,-99.99,,,-99.99,,2013-03-24 16:22:00,
2013-03-24 12:32:00,37.0,21.0,29.89,West,260,9.0,-999.0,51,-99.99,,,-99.99,,2013-03-24 16:32:00,
2013-03-24 12:41:00,37.0,21.0,29.88,West,280,8.0,-999.0,51,-99.99,,,-99.99,,2013-03-24 16:41:00,
2013-03-24 12:52:00,37.0,19.0,29.87,West,260,7.0,-999.0,47,-99.99,,,-99.99,,2013-03-24 16:52:00,
2013-03-24 13:02:00,37.0,19.0,29.87,West,260,7.0,-999.0,47,-99.99,,,-99.99,,2013-03-24 17:02:00,
2013-03-24 13:11:00,39.0,21.0,29.86,WNW,290,10.0,16.0,48,-99.99,,,-99.99,,2013-03-24 17:11:00,
2013-03-24 13:22:00,39.0,21.0,29.85,WNW,290,10.0,-999.0,48,-99.99,,,-99.99,,2013-03-24 17:22:00,
2013-03-24 13:31:00,39.0,19.0,29.85,WSW,250,6.0,-999.0,44,-99.99,,,-99.99,,2013-03-24 17:31:00,
2013-03-24 13:41:00,39.0,19.0,29.85,WNW,300,7.0,-999.0,44,-99.99,,,-99.99,,2013-03-24 17:41:00,
2013-03-24 13:52:00,39.0,21.0,29.84,West,260,7.0,-999.0,48,-99.99,,,-99.99,,2013-03-24 17:52:00,
2013-03-24 14:03:00,39.0,21.0,29.84,West,260,7.0,-999.0,48,-99.99,,,-99.99,,2013-03-24 18:03:00,
2013-03-24 14:12:00,41.0,19.0,29.84,North,360,6.0,-999.0,41,-99.99,,,-99.99,,2013-03-24 18:12:00,
2013-03-24 14:22:00,43.0,21.0,29.83,North,0,0.0,-999.0,41,-99.99,,,-99.99,,2013-03-24 18:22:00,
2013-03-24 14:32:00,41.0,19.0,29.82,North,350,7.0,-999.0,41,-99.99,,,-99.99,,2013-03-24 18:32:00,
2013-03-24 14:43:00,43.0,19.0,29.82,North,10,6.0,-999.0,38,-99.99,,,-99.99,,2013-03-24 18:43:00,
2013-03-24 14:52:00,41.0,19.0,29.81,North,360,3.0,-999.0,41,-99.99,,,-99.99,,2013-03-24 18:52:00,
2013-03-24 15:03:00,41.0,19.0,29.81,North,360,3.0,-999.0,41,-99.99,,,-99.99,,2013-03-24 19:03:00,
2013-03-24 15:12:00,43.0,19.0,29.80,NNW,330,5.0,-999.0,38,-99.99,,,-99.99,,2013-03-24 19:12:00,
2013-03-24 15:22:00,41.0,19.0,29.80,NNE,30,3.0,-999.0,41,-99.99,,,-99.99,,2013-03-24 19:22:00,
2013-03-24 15:32:00,43.0,19.0,29.79,North,0,0.0,-999.0,38,-99.99,,,-99.99,,2013-03-24 19:32:00,
2013-03-24 15:42:00,43.0,19.0,29.79,North,0,0.0,-999.0,38,-99.99,,,-99.99,,2013-03-24 19:42:00,
2013-03-24 15:52:00,43.0,19.0,29.78,NNE,30,3.0,-999.0,38,-99.99,,,-99.99,,2013-03-24 19:52:00,
2013-03-24 16:03:00,43.0,19.0,29.78,NNE,30,3.0,-999.0,38,-99.99,,,-99.99,,2013-03-24 20:03:00,
2013-03-24 16:12:00,43.0,19.0,29.78,NNE,30,5.0,-999.0,38,-99.99,,,-99.99,,2013-03-24 20:12:00,
2013-03-24 16:22:00,43.0,18.0,29.77,North,0,0.0,-999.0,35,-99.99,,,-99.99,,2013-03-24 20:22:00,
2013-03-24 16:32:00,43.0,19.0,29.76,NNE,30,6.0,-999.0,38,-99.99,,,-99.99,,2013-03-24 20:32:00,
2013-03-24 16:42:00,43.0,19.0,29.76,North,350,7.0,-999.0,38,-99.99,,,-99.99,,2013-03-24 20:42:00,
2013-03-24 16:52:00,45.0,19.0,29.76,NE,50,7.0,-999.0,36,-99.99,,,-99.99,,2013-03-24 20:52:00,
2013-03-24 17:02:00,45.0,19.0,29.76,NE,50,7.0,-999.0,36,-99.99,,,-99.99,,2013-03-24 21:02:00,
2013-03-24 17:12:00,43.0,21.0,29.76,ENE,70,7.0,-999.0,41,-99.99,,,-99.99,,2013-03-24 21:12:00,
2013-03-24 17:22:00,43.0,21.0,29.76,ENE,70,6.0,9.0,41,-99.99,,,-99.99,,2013-03-24 21:22:00,
2013-03-24 17:33:00,43.0,21.0,29.75,ENE,60,9.0,-999.0,41,-99.99,,,-99.99,,2013-03-24 21:33:00,
2013-03-24 17:43:00,41.0,21.0,29.75,NE,50,8.0,-999.0,44,-99.99,,,-99.99,,2013-03-24 21:43:00,
2013-03-24 17:52:00,41.0,21.0,29.76,NE,50,9.0,-999.0,44,-99.99,,,-99.99,,2013-03-24 21:52:00,
2013-03-24 18:03:00,41.0,21.0,29.76,NE,50,9.0,-999.0,44,-99.99,,,-99.99,,2013-03-24 22:03:00,
2013-03-24 18:13:00,41.0,21.0,29.76,East,80,3.0,9.0,44,-99.99,,,-99.99,,2013-03-24 22:13:00,
2013-03-24 18:23:00,39.0,21.0,29.77,ENE,70,8.0,-999.0,48,-99.99,,,-99.99,,2013-03-24 22:23:00,
2013-03-24 18:33:00,39.0,21.0,29.77,North,0,0.0,-999.0,48,-99.99,,,-99.99,,2013-03-24 22:33:00,
2013-03-24 18:43:00,39.0,21.0,29.77,North,0,0.0,-999.0,48,-99.99,,,-99.99,,2013-03-24 22:43:00,
2013-03-24 18:52:00,39.0,21.0,29.77,ENE,60,7.0,-999.0,48,-99.99,,,-99.99,,2013-03-24 22:52:00,
2013-03-24 19:03:00,39.0,21.0,29.77,ENE,60,7.0,-999.0,48,-99.99,,,-99.99,,2013-03-24 23:03:00,
2013-03-24 19:12:00,39.0,21.0,29.78,ENE,70,7.0,-999.0,48,-99.99,,,-99.99,,2013-03-24 23:12:00,
2013-03-24 19:22:00,39.0,21.0,29.77,NE,50,7.0,-999.0,48,-99.99,,,-99.99,,2013-03-24 23:22:00,
2013-03-24 19:32:00,37.0,21.0,29.77,NE,50,6.0,-999.0,51,-99.99,,,-99.99,,2013-03-24 23:32:00,
2013-03-24 19:42:00,37.0,23.0,29.77,NE,50,7.0,-999.0,55,-99.99,,,-99.99,,2013-03-24 23:42:00,
2013-03-24 19:52:00,37.0,21.0,29.77,NE,50,8.0,-999.0,51,-99.99,,,-99.99,,2013-03-24 23:52:00,
2013-03-24 20:02:00,37.0,21.0,29.77,NE,50,8.0,-999.0,51,-99.99,,,-99.99,,2013-03-25 00:02:00,
2013-03-24 20:12:00,37.0,23.0,29.78,NE,50,7.0,-999.0,55,-99.99,,,-99.99,,2013-03-25 00:12:00,
2013-03-24 20:22:00,36.0,25.0,29.77,NE,50,9.0,-999.0,64,-99.99,,,-99.99,,2013-03-25 00:22:00,
2013-03-24 20:32:00,36.0,25.0,29.77,NE,40,9.0,-999.0,64,-99.99,,,-99.99,,2013-03-25 00:32:00,
2013-03-24 20:42:00,36.0,25.0,29.77,NE,40,8.0,-999.0,64,-99.99,,,-99.99,,2013-03-25 00:42:00,
2013-03-24 20:52:00,36.0,25.0,29.78,NE,40,10.0,-999.0,64,-99.99,,,-99.99,,2013-03-25 00:52:00,
2013-03-24 21:02:00,36.0,25.0,29.78,NE,40,10.0,-999.0,64,-99.99,,,-99.99,,2013-03-25 01:02:00,
2013-03-24 21:12:00,36.0,25.0,29.78,NE,50,8.0,-999.0,64,-99.99,,,-99.99,,2013-03-25 01:12:00,
2013-03-24 21:22:00,36.0,25.0,29.79,NE,40,8.0,-999.0,64,-99.99,,,-99.99,,2013-03-25 01:22:00,
2013-03-24 21:32:00,36.0,25.0,29.79,NE,50,8.0,-999.0,64,-99.99,,,-99.99,,2013-03-25 01:32:00,
2013-03-24 21:42:00,36.0,25.0,29.79,NNE,30,7.0,-999.0,64,-99.99,,,-99.99,,2013-03-25 01:42:00,
2013-03-24 21:52:00,36.0,25.0,29.79,NNE,30,7.0,-999.0,64,-99.99,,,-99.99,,2013-03-25 01:52:00,
2013-03-24 22:02:00,36.0,25.0,29.79,NNE,30,7.0,-999.0,64,-99.99,,,-99.99,,2013-03-25 02:02:00,
2013-03-24 22:12:00,36.0,25.0,29.80,NE,40,9.0,-999.0,64,-99.99,,,-99.99,,2013-03-25 02:12:00,
2013-03-24 22:22:00,34.0,25.0,29.79,NE,40,9.0,-999.0,69,-99.99,,,-99.99,,2013-03-25 02:22:00,
2013-03-24 22:33:00,34.0,25.0,29.80,NE,50,9.0,-999.0,69,-99.99,,,-99.99,,2013-03-25 02:33:00,
2013-03-24 22:42:00,34.0,23.0,29.80,NE,40,7.0,-999.0,64,-99.99,,,-99.99,,2013-03-25 02:42:00,
2013-03-24 22:52:00,34.0,23.0,29.79,NE,40,8.0,-999.0,64,-99.99,,,-99.99,,2013-03-25 02:52:00,
2013-03-24 23:02:00,34.0,23.0,29.79,NE,40,8.0,-999.0,64,-99.99,,,-99.99,,2013-03-25 03:02:00,
2013-03-24 23:13:00,34.0,25.0,29.79,NE,40,8.0,-999.0,69,-99.99,,,-99.99,,2013-03-25 03:13:00,
2013-03-24 23:23:00,32.0,25.0,29.79,NE,40,8.0,-999.0,74,-99.99,,,-99.99,,2013-03-25 03:23:00,
2013-03-24 23:33:00,32.0,23.0,29.79,NNE,30,7.0,-999.0,69,-99.99,,,-99.99,,2013-03-25 03:33:00,
2013-03-24 23:43:00,32.0,25.0,29.79,NNE,30,7.0,-999.0,74,-99.99,,,-99.99,,2013-03-25 03:43:00,
2013-03-24 23:53:00,30.0,23.0,29.79,NNE,30,6.0,-999.0,74,-99.99,,,-99.99,,2013-03-25 03:53:00,